Location: Zielona Gora
(51.9397°N, 15.5050°E)
Time: 20:42:05
(UTC+01:00)

ISS - Visible Passes

Search period start: 18 January 2018 00:00
Search period end: 28 January 2018 00:00
Orbit: 402 x 407 km, 51.6° (Epoch: 18 January)

Date Brightness Start Highest point End Pass type
(mag) Time Alt. Az. Time Alt. Az. Time Alt. Az.
26 Jan -1.4 18:55:25 10° SSW 18:56:18 15° S 18:56:18 15° S visible
27 Jan -1.7 18:04:01 10° S 18:05:49 14° SE 18:06:18 14° SE visible
27 Jan -0.8 19:38:34 10° SW 19:38:58 13° SW 19:38:58 13° SW visible
